Dewpoint
47 48 48 48 48 49 49 49 50 50 51 51 51 51 51 51 50 44 25 28 44 47 51 24 19 19 19 28 15 15 10 13 16 22 17 25 21 23 25 31 46 55 56 61 63
47 48 48 48 48 49 49 49 50 50 51 51 51 51 50 51 45 38 39 45 48 53 22 28 29 18 17 25 22 13 6 5 12 21 20 15 13 14 17 19 28 53 62 62 63
47 48 48 48 48 49 49 49 50 50 50 50 51 51 50 49 21 12 53 49 53 51 25 32 31 23 25 23 22 18 8 10 8 13 11 10 10 10 14 13 19 43 59 61 61
48 48 48 48 48 49 49 49 49 49 50 50 50 50 50 44 -14 18 54 52 52 32 22 27 27 22 17 16 16 17 13 11 11 10 9 10 11 9 9 12 20 35 60 62 60
47 48 48 48 48 48 48 49 49 49 50 50 50 50 42 7 9 30 53 51 33 26 22 19 24 21 17 16 16 13 13 12 11 12 11 10 8 8 10 13 21 36 62 61 61
47 48 48 48 48 49 49 49 50 50 49 50 50 48 40 3 23 39 44 38 31 27 21 27 21 20 16 9 12 12 12 10 9 11 10 10 10 9 17 18 16 25 58 61 61
47 47 48 48 49 49 48 48 49 49 49 49 49 46 40 14 36 38 35 33 32 28 19 18 15 18 19 13 18 16 12 11 9 9 8 10 7 8 10 12 10 15 54 60 62
47 48 48 48 47 48 48 49 49 50 49 49 49 44 26 32 37 31 31 30 32 32 27 25 20 25 23 22 20 15 12 7 4 9 9 8 -1 7 7 7 6 9 43 59 61
47 48 48 49 49 50 50 49 51 50 50 50 44 41 31 38 20 7 13 11 15 25 23 19 26 24 23 19 16 15 3 5 3 7 9 8 7 9 11 10 10 10 15 51 58
47 48 48 50 50 50 50 48 51 48 48 46 43 31 28 20 18 5 4 10 16 24 25 23 23 23 22 20 16 11 12 11 2 4 9 7 6 7 9 9 8 9 9 27 54
48 48 48 49 49 49 39 31 27 25 32 26 23 24 25 20 8 3 4 9 10 9 5 7 21 20 22 22 20 15 12 9 9 14 17 12 10 13 12 11 9 9 8 25 46
47 47 48 48 48 43 32 28 30 28 18 27 26 22 6 11 3 5 5 5 10 4 6 5 5 12 10 24 23 21 20 20 21 20 19 17 15 13 11 10 9 9 10 24 42
47 47 48 47 45 35 33 33 35 32 14 24 6 2 3 3 3 3 7 4 8 3 5 7 7 8 7 7 18 22 21 21 21 21 19 15 16 16 16 12 10 9 9 25 39
48 48 47 42 32 32 29 35 37 32 16 6 3 3 3 5 4 4 9 8 5 3 15 9 8 7 11 9 7 7 18 21 21 20 18 15 11 7 7 7 7 7 7 18 43
48 48 48 39 26 26 31 35 39 30 6 8 3 4 5 3 -0 5 15 14 9 9 20 12 12 7 4 8 9 12 21 20 21 20 20 19 14 15 11 9 8 6 6 8 38
48 48 45 34 30 30 35 38 31 16 -3 8 3 3 4 5 5 6 8 22 21 21 19 18 17 16 17 13 9 9 23 25 24 22 19 20 16 14 12 11 9 7 7 7 20
48 46 36 34 28 31 38 29 14 -0 8 2 4 6 5 5 3 8 11 9 11 10 12 12 17 19 17 14 15 12 14 20 20 20 17 20 16 16 17 16 24 31 33 30 25
46 39 31 29 31 33 24 7 -3 5 6 7 6 9 10 7 11 17 12 9 14 20 16 13 10 18 28 24 19 14 15 19 14 12 13 18 17 16 29 38 39 40 41 41 41
38 28 26 28 31 22 16 7 6 7 6 10 13 11 9 18 21 15 12 14 12 21 15 16 13 18 18 27 28 18 15 21 21 25 20 13 15 27 35 35 36 38 39 41 43
27 22 23 31 29 25 16 10 9 13 16 16 13 16 17 20 19 16 18 16 16 19 24 21 16 16 22 24 29 28 19 19 24 14 12 15 11 24 31 34 36 37 37 38 40
23 18 23 29 27 22 15 15 19 19 24 23 19 19 21 21 19 18 18 18 19 18 22 24 22 14 21 28 22 23 20 26 26 22 14 13 23 36 34 35 35 35 36 38 39
21 18 25 27 19 18 16 19 25 20 27 28 27 26 25 24 21 20 19 18 23 23 21 25 24 17 19 28 31 30 23 26 20 19 24 25 26 32 31 33 33 34 35 37 39
18 17 25 27 14 18 19 22 25 25 26 28 27 30 30 26 20 20 20 24 29 26 29 29 21 15 15 27 29 27 30 31 29 26 24 21 26 28 28 29 34 33 34 37 40
21 17 22 24 21 19 19 22 22 26 27 27 29 29 27 26 27 23 24 27 29 29 34 30 25 20 15 19 23 21 22 24 25 23 25 23 23 23 26 30 35 34 33 36 38
23 18 19 15 21 23 22 23 22 23 26 26 25 25 23 24 25 24 28 28 28 32 30 26 22 24 25 21 20 23 22 20 20 21 18 21 22 24 28 31 36 33 32 34 37
22 21 23 22 22 22 24 22 23 24 25 23 24 25 24 24 26 25 28 27 27 29 28 30 23 27 25 27 22 18 21 20 20 22 22 21 19 27 30 34 34 30 30 32 34
29 25 25 23 22 22 23 24 23 26 26 27 25 25 24 25 28 29 29 31 31 25 27 27 24 25 19 22 17 13 22 23 21 23 23 18 24 28 26 31 30 30 30 32 33
Lifted_Index
16 16 16 15 15 15 15 15 14 14 13 13 13 12 13 13 12 12 11 11 12 11 12 12 11 11 10 10 10 9 7 5 4 4 5 5 6 6 6 4 2 -1 -4 -5 -5
16 16 15 15 15 15 15 14 14 14 13 13 13 12 12 12 12 11 11 11 11 11 11 11 11 10 9 9 9 8 6 5 5 5 6 6 6 7 6 5 4 0 -3 -5 -5
16 16 15 15 15 15 15 14 14 14 13 13 12 12 12 12 11 10 10 10 10 11 12 12 10 9 8 8 8 7 6 6 6 7 7 7 7 7 7 6 6 3 -1 -4 -5
16 16 15 15 15 15 15 14 14 13 13 13 12 12 13 12 10 10 9 9 11 12 12 12 10 9 7 7 7 7 6 6 7 7 7 7 7 7 7 7 7 5 -0 -4 -5
16 16 15 15 15 14 14 14 14 13 13 13 12 13 13 11 11 11 10 10 12 13 12 11 10 9 8 7 7 7 7 7 7 7 7 7 6 6 7 7 8 6 0 -3 -4
16 15 15 15 14 14 14 14 13 13 13 13 13 13 12 11 12 12 11 12 12 13 12 11 11 10 9 8 8 7 7 7 7 7 6 6 5 6 7 7 8 6 2 -3 -4
16 15 15 15 14 14 14 14 13 13 13 13 13 13 12 12 12 12 12 12 12 12 12 12 11 11 10 9 9 7 6 5 6 6 6 5 4 5 6 7 7 7 3 -1 -3
15 15 15 14 14 14 14 13 13 13 13 12 12 12 12 12 12 13 13 12 11 11 11 11 11 11 10 9 8 6 5 4 5 6 6 5 4 4 6 6 7 7 5 1 -2
15 15 14 14 14 14 13 13 12 12 12 12 12 12 11 12 13 14 13 11 10 10 10 10 10 10 9 7 6 4 3 3 4 6 6 4 4 4 6 6 6 7 7 4 1
15 14 14 14 13 14 14 13 12 12 12 12 12 11 12 12 13 14 13 12 10 9 9 9 9 8 8 6 5 4 3 3 4 6 6 4 4 5 6 6 6 7 8 7 5
14 14 14 14 14 14 14 14 13 12 12 12 12 12 13 14 14 14 13 12 10 9 9 8 7 7 7 7 6 5 4 4 5 7 7 5 4 5 6 5 5 6 7 8 8
15 15 14 14 14 15 15 14 14 12 12 13 14 14 14 14 14 14 14 12 11 9 9 8 8 8 8 8 8 7 5 5 6 8 8 6 5 5 5 5 5 5 7 8 8
15 15 15 15 15 15 14 14 13 12 10 12 14 14 14 14 14 14 14 13 11 10 9 9 9 9 8 8 8 7 6 6 7 7 7 6 4 4 5 5 5 5 6 8 8
15 15 15 16 15 14 13 13 12 10 8 10 13 14 14 14 13 13 13 13 11 10 9 9 9 8 8 8 8 7 7 7 7 7 6 6 4 3 4 5 5 5 6 8 8
15 15 15 16 15 14 12 12 11 8 6 9 12 13 13 12 12 11 11 10 9 9 8 8 8 8 7 7 7 7 7 6 6 6 6 5 4 4 4 4 5 6 7 8 9
15 15 16 16 15 14 12 10 8 6 6 8 10 10 9 9 8 8 7 6 6 6 6 6 6 6 6 6 6 5 4 4 4 4 4 5 4 4 4 5 5 6 7 8 8
16 16 16 16 15 14 12 9 7 6 7 8 7 7 6 6 5 5 4 3 3 3 3 3 3 4 4 5 5 4 3 2 1 2 3 4 4 4 5 5 5 6 6 7 7
16 16 16 16 15 14 11 8 6 7 7 7 5 5 4 4 3 3 2 1 2 2 2 2 2 2 3 3 3 3 2 1 0 0 1 2 3 3 4 4 4 4 4 5 5
16 16 16 16 15 14 11 8 7 7 7 5 4 4 3 3 3 2 1 2 2 3 3 2 2 2 2 2 2 2 2 1 -0 -0 0 1 1 2 3 3 3 3 4 4 4
15 15 16 15 15 12 9 8 7 7 6 5 4 4 3 3 3 2 2 3 3 3 4 3 2 2 2 2 1 1 1 0 -0 -0 -0 0 1 1 2 2 3 3 3 3 3
14 14 15 15 13 11 9 8 7 6 5 5 5 4 3 3 3 3 3 3 4 4 4 4 3 2 2 1 1 1 0 -0 -0 -0 -0 -0 0 1 1 1 2 2 2 2 2
13 13 14 14 11 10 9 8 6 5 5 5 5 5 4 4 3 3 3 4 4 4 4 4 3 2 1 1 1 1 0 -0 -0 -0 -0 0 0 0 0 0 0 0 0 -0 -0
12 12 13 13 11 9 9 8 6 5 5 5 5 5 5 4 4 4 4 4 4 4 4 4 3 2 1 1 1 1 1 0 -0 -0 0 0 0 0 0 0 -0 -0 -1 -1 -2
12 12 12 12 11 10 9 7 5 5 5 6 6 6 5 4 4 4 4 4 5 5 5 4 3 2 2 2 1 1 1 1 0 0 0 0 0 1 0 1 1 0 -0 -2 -2
12 12 11 11 11 10 9 7 5 5 5 6 6 6 5 4 4 5 5 5 4 4 4 4 3 3 3 2 1 1 1 1 1 1 1 1 1 2 2 2 2 2 0 -1 -2
13 12 12 11 11 10 9 8 6 5 6 6 6 6 6 5 5 5 5 5 4 4 3 3 3 3 3 3 2 1 2 2 2 2 2 2 3 4 4 3 3 2 0 -1 -2
13 13 13 12 11 10 9 8 6 6 6 6 6 6 6 5 5 5 6 6 5 4 3 3 3 2 2 2 2 2 3 4 4 4 3 3 4 5 4 4 3 2 0 -1 -2